period_start,C,m1,H,J0,J1,J2,J3,J4,J5,JA,JB,JC,JD,JJ,JK,JN,#
2013-08-05 00:00:22,0.00,0.58,0.00,28.21,31.25,33.45,5.87,31.04,1011.74,2035.99,3177.00,3156.91,3431.00,349.75,316.29,7.32,0000 0000 0000 0000 000000
2013-08-05 00:01:22,0.01,0.58,0.00,28.20,31.25,33.46,5.95,30.88,1011.74,2035.99,3177.00,3156.89,3431.00,350.94,317.60,7.33,0000 0000 0000 0000 000000
2013-08-05 00:02:22,0.01,0.58,0.00,28.25,31.25,33.45,5.91,30.71,1011.74,2035.99,3177.00,3156.82,3430.99,350.72,317.42,7.33,0000 0000 0000 0000 000000
2013-08-05 00:03:23,0.01,0.58,0.00,28.20,31.25,33.48,5.73,31.04,1011.73,2035.99,3177.00,3156.64,3430.97,349.36,316.15,7.34,0000 0000 0000 0000 000000
2013-08-05 00:04:23,0.04,0.58,0.00,28.08,31.24,33.45,5.81,30.79,1011.75,2035.99,3176.99,3156.51,3430.95,349.19,316.86,7.34,0000 0000 0000 0000 000000
2013-08-05 00:05:23,0.03,0.58,0.00,28.00,31.23,33.44,5.95,30.88,1011.76,2035.99,3176.99,3156.53,3430.96,350.09,317.14,7.35,0000 0000 0000 0000 000000
2013-08-05 00:06:23,-0.01,0.58,0.00,28.11,31.23,33.48,5.82,31.00,1011.74,2035.99,3176.99,3156.59,3430.97,350.52,317.43,7.36,0000 0000 0000 0000 000000
2013-08-05 00:07:24,-0.03,0.58,0.00,28.17,31.22,33.49,5.86,31.08,1011.74,2035.99,3176.99,3156.71,3430.95,350.17,317.17,7.36,0000 0000 0000 0000 000000
2013-08-05 00:08:24,0.01,0.58,0.00,28.16,31.22,33.47,5.88,31.13,1011.75,2035.99,3176.99,3156.53,3430.91,350.69,317.52,7.37,0000 0000 0000 0000 000000
2013-08-05 00:09:24,0.03,0.58,0.00,28.19,31.22,33.50,5.83,31.13,1011.74,2035.99,3176.97,3156.47,3430.91,350.11,316.85,7.37,0000 0000 0000 0000 000000
2013-08-05 00:10:25,0.02,0.58,0.00,28.23,31.22,33.46,5.83,31.00,1011.76,2035.99,3176.97,3156.53,3430.95,350.11,316.40,7.38,0000 0000 0000 0000 000000
2013-08-05 00:11:25,-0.01,0.58,0.00,28.25,31.22,33.45,5.86,30.96,1011.73,2035.99,3176.95,3156.61,3430.94,350.07,317.15,7.38,0000 0000 0000 0000 000000
2013-08-05 00:12:25,-0.01,0.58,0.00,28.24,31.22,33.42,5.86,30.92,1011.74,2036.00,3176.97,3156.69,3430.92,350.24,316.98,7.39,0000 0000 0000 0000 000000
2013-08-05 00:13:26,-0.01,0.58,0.00,28.18,31.22,33.46,5.91,31.13,1011.75,2036.00,3176.95,3156.70,3430.93,350.66,317.48,7.40,0000 0000 0000 0000 000000
2013-08-05 00:14:26,0.00,0.58,0.00,28.19,31.22,33.45,5.77,31.13,1011.73,2036.00,3176.93,3156.67,3430.92,349.82,316.70,7.40,0000 0000 0000 0000 000000
2013-08-05 00:15:26,0.02,0.58,0.00,28.22,31.21,33.48,5.81,31.25,1011.73,2036.00,3176.94,3156.52,3430.91,348.80,316.04,7.41,0000 0000 0000 0000 000000
2013-08-05 00:16:26,0.01,0.58,0.00,28.18,31.20,33.46,5.80,31.13,1011.75,2036.00,3176.93,3156.55,3430.92,349.79,316.67,7.41,0000 0000 0000 0000 000000
2013-08-05 00:17:26,-0.02,0.58,0.00,28.18,31.20,33.43,5.82,31.04,1011.74,2036.00,3176.95,3156.73,3430.92,349.32,316.74,7.42,0000 0000 0000 0000 000000
2013-08-05 00:18:27,-0.03,0.58,0.00,28.20,31.20,33.45,5.79,31.00,1011.73,2036.00,3176.95,3156.80,3430.95,349.41,316.31,7.43,0000 0000 0000 0000 000000
2013-08-05 00:19:27,-0.02,0.58,0.00,28.21,31.20,33.47,5.77,31.04,1011.73,2036.00,3176.91,3156.76,3430.91,349.59,316.22,7.43,0000 0000 0000 0000 000000
2013-08-05 00:20:27,0.01,0.58,0.00,28.17,31.20,33.43,5.92,31.04,1011.74,2036.00,3176.88,3156.65,3430.92,349.89,316.80,7.44,0000 0000 0000 0000 000000
2013-08-05 00:21:28,0.03,0.58,0.00,28.15,31.20,33.46,5.79,31.13,1011.74,2036.01,3176.88,3156.59,3430.93,349.98,317.06,7.44,0000 0000 0000 0000 000000
2013-08-05 00:22:28,0.01,0.58,0.00,28.13,31.20,33.46,5.89,30.92,1011.75,2036.01,3176.86,3156.70,3430.94,350.38,317.27,7.45,0000 0000 0000 0000 000000
2013-08-05 00:23:28,-0.01,0.58,0.00,28.14,31.20,33.47,5.91,30.92,1011.74,2036.01,3176.81,3156.67,3430.92,350.23,317.13,7.45,0000 0000 0000 0000 000000
2013-08-05 00:24:29,0.02,0.58,0.00,28.09,31.20,33.44,5.93,31.08,1011.74,2036.01,3176.81,3156.66,3430.92,350.48,317.39,7.46,0000 0000 0000 0000 000000
2013-08-05 00:25:29,-0.02,0.58,0.00,28.08,31.19,33.43,5.88,31.08,1011.75,2036.01,3176.85,3156.70,3430.91,350.05,317.01,7.47,0000 0000 0000 0000 000000
2013-08-05 00:26:29,0.00,0.58,0.00,28.09,31.19,33.43,5.91,31.17,1011.74,2036.01,3176.76,3156.55,3430.75,349.95,317.17,7.47,0000 0000 0000 0000 000000
2013-08-05 00:27:30,0.07,0.58,0.00,28.15,31.18,33.42,5.99,31.08,1011.73,2036.00,3176.75,3156.49,3430.75,350.36,317.37,7.48,0000 0000 0000 0000 000000
2013-08-05 00:28:30,-0.02,0.58,0.00,28.14,31.18,33.41,5.91,30.96,1011.74,2036.01,3176.82,3156.64,3430.81,350.38,317.13,7.48,0000 0000 0000 0000 000000
2013-08-05 00:29:30,-0.05,0.58,0.00,28.11,31.17,33.45,5.73,31.25,1011.73,2036.01,3176.84,3156.77,3430.86,349.08,316.07,7.49,0000 0000 0000 0000 000000
2013-08-05 00:30:30,-0.01,0.58,0.00,28.12,31.17,33.42,5.82,30.88,1011.73,2036.02,3176.84,3156.80,3430.89,349.15,315.94,7.50,0000 0000 0000 0000 000000
2013-08-05 00:31:30,-0.01,0.58,0.00,28.13,31.17,33.38,6.07,30.96,1011.74,2036.03,3176.81,3156.81,3430.85,350.66,317.58,7.50,0000 0000 0000 0000 000000
2013-08-05 00:32:31,0.02,0.58,0.00,28.13,31.17,33.41,5.87,31.08,1011.74,2036.03,3176.70,3156.81,3430.91,350.06,317.05,7.51,0000 0000 0000 0000 000000
2013-08-05 00:33:31,-0.00,0.58,0.00,28.17,31.17,33.43,5.95,31.13,1011.74,2036.04,3176.78,3156.85,3430.90,350.57,317.19,7.51,0000 0000 0000 0000 000000
2013-08-05 00:34:31,-0.01,0.58,0.00,28.19,31.17,33.44,5.91,31.13,1011.73,2036.04,3176.75,3156.90,3430.92,350.71,317.11,7.52,0000 0000 0000 0000 000000
2013-08-05 00:35:32,0.00,0.58,0.00,28.18,31.17,33.43,5.85,31.00,1011.75,2036.04,3176.75,3156.88,3430.85,349.31,316.62,7.53,0000 0000 0000 0000 000000
2013-08-05 00:36:32,0.02,0.58,0.00,28.12,31.17,33.44,5.78,31.00,1011.74,2036.02,3176.51,3156.69,3430.67,350.72,317.58,7.53,0000 0000 0000 0000 000000
2013-08-05 00:37:32,0.08,0.58,0.00,28.01,31.17,33.42,5.83,30.75,1011.73,2036.03,3176.38,3156.60,3430.55,350.53,317.72,7.54,0000 0000 0000 0000 000000
2013-08-05 00:38:32,0.02,0.58,0.00,27.97,31.16,33.45,5.73,31.00,1011.74,2036.04,3176.42,3156.66,3430.63,349.19,316.37,7.54,0000 0000 0000 0000 000000
2013-08-05 00:39:32,-0.01,0.58,0.00,28.04,31.15,33.44,5.91,30.92,1011.75,2036.03,3176.33,3156.63,3430.61,350.01,316.88,7.55,0000 0000 0000 0000 000000
2013-08-05 00:40:33,0.00,0.58,0.00,28.11,31.15,33.38,5.76,31.21,1011.73,2036.04,3176.41,3156.70,3430.70,349.45,316.61,7.55,0000 0000 0000 0000 000000
2013-08-05 00:41:33,0.00,0.58,0.00,28.02,31.15,33.40,5.83,31.13,1011.76,2036.06,3176.26,3156.63,3430.67,350.29,317.30,7.56,0000 0000 0000 0000 000000
2013-08-05 00:42:33,0.04,0.58,0.00,27.96,31.15,33.41,5.95,31.29,1011.77,2036.07,3176.20,3156.57,3430.64,349.93,317.04,7.57,0000 0000 0000 0000 000000
2013-08-05 00:43:34,0.05,0.58,0.00,27.92,31.15,33.40,5.76,31.08,1011.76,2036.04,3176.08,3156.33,3430.32,350.06,316.72,7.57,0000 0000 0000 0000 000000
2013-08-05 00:44:34,0.05,0.58,0.00,28.00,31.15,33.38,5.72,31.13,1011.75,2036.02,3176.05,3156.25,3430.15,348.74,315.92,7.58,0000 0000 0000 0000 000000
2013-08-05 00:45:34,0.03,0.58,0.00,28.06,31.15,33.35,5.84,31.13,1011.76,2036.04,3176.03,3156.22,3430.17,350.19,317.17,7.58,0000 0000 0000 0000 000000
2013-08-05 00:46:35,0.01,0.58,0.00,28.11,31.15,33.38,5.81,31.08,1011.74,2036.05,3176.03,3156.35,3430.33,349.87,316.60,7.59,0000 0000 0000 0000 000000
2013-08-05 00:47:35,0.00,0.58,0.00,28.14,31.15,33.37,5.81,30.92,1011.73,2036.05,3176.03,3156.30,3430.29,349.84,316.83,7.60,0000 0000 0000 0000 000000
2013-08-05 00:48:35,-0.01,0.58,0.00,28.15,31.14,33.40,5.86,30.88,1011.75,2036.06,3176.03,3156.32,3430.31,349.56,316.50,7.60,0000 0000 0000 0000 000000
2013-08-05 00:49:35,0.01,0.58,0.00,28.12,31.14,33.42,5.82,31.00,1011.78,2036.08,3176.03,3156.30,3430.20,349.99,316.93,7.61,0000 0000 0000 0000 000000
2013-08-05 00:50:35,0.03,0.58,0.00,28.10,31.13,33.41,5.82,31.04,1011.75,2036.08,3176.02,3156.28,3430.13,349.85,316.54,7.61,0000 0000 0000 0000 000000
2013-08-05 00:51:36,0.01,0.58,0.00,28.11,31.13,33.37,5.86,31.13,1011.75,2036.05,3176.01,3156.17,3430.11,349.10,316.13,7.62,0000 0000 0000 0000 000000
2013-08-05 00:52:36,0.00,0.58,0.00,28.14,31.12,33.40,5.89,31.08,1011.74,2036.07,3176.01,3156.17,3430.12,350.02,316.93,7.62,0000 0000 0000 0000 000000
2013-08-05 00:53:36,0.00,0.58,0.00,28.15,31.12,33.41,5.70,31.21,1011.77,2036.09,3176.01,3156.21,3430.08,349.07,316.07,7.63,0000 0000 0000 0000 000000
2013-08-05 00:54:36,0.03,0.58,0.00,28.12,31.12,33.37,5.77,31.08,1011.77,2036.09,3176.00,3156.18,3430.05,349.48,316.18,7.64,0000 0000 0000 0000 000000
2013-08-05 00:55:36,0.01,0.58,0.00,28.11,31.12,33.34,5.88,30.92,1011.77,2036.09,3176.00,3156.17,3430.06,350.01,316.95,7.64,0000 0000 0000 0000 000000
2013-08-05 00:56:37,-0.01,0.58,0.00,28.11,31.12,33.32,5.86,31.00,1011.75,2036.07,3176.00,3156.18,3430.05,349.36,316.37,7.65,0000 0000 0000 0000 000000
2013-08-05 00:57:37,-0.00,0.58,0.00,28.12,31.12,33.34,5.76,30.96,1011.76,2036.14,3176.01,3156.29,3430.09,349.09,316.15,7.65,0000 0000 0000 0000 000000
2013-08-05 00:58:37,0.01,0.58,0.00,28.12,31.12,33.33,5.70,31.00,1011.77,2036.23,3176.00,3156.24,3430.09,350.10,317.19,7.66,0000 0000 0000 0000 000000
2013-08-05 00:59:38,0.08,0.58,0.00,28.10,31.12,33.35,5.80,30.71,1011.75,2036.23,3176.00,3156.41,3430.13,350.20,317.09,7.67,0000 0000 0000 0000 000000
2013-08-05 01:00:38,-0.01,0.58,0.00,28.11,31.12,33.36,5.84,31.08,1011.76,2036.33,3176.00,3156.59,3430.21,349.72,316.60,7.67,0000 0000 0000 0000 000000
2013-08-05 01:01:38,0.02,0.58,0.00,28.11,31.11,33.36,5.77,30.96,1011.81,2036.41,3176.00,3156.56,3430.20,349.51,316.52,7.68,0000 0000 0000 0000 000000
2013-08-05 01:02:38,0.02,0.58,0.00,28.15,31.10,33.35,5.77,31.04,1011.88,2036.34,3176.00,3156.38,3430.13,350.49,317.39,7.68,0000 0000 0000 0000 000000
2013-08-05 01:03:39,0.02,0.58,0.00,28.13,31.10,33.34,5.73,31.13,1011.96,2036.35,3176.00,3156.35,3430.16,350.38,317.33,7.69,0000 0000 0000 0000 000000
2013-08-05 01:04:39,0.01,0.58,0.00,28.13,31.10,33.34,5.90,31.08,1012.02,2036.36,3176.00,3156.36,3430.15,349.80,316.83,7.70,0000 0000 0000 0000 000000
2013-08-05 01:05:39,-0.02,0.58,0.00,28.15,31.10,33.34,5.84,31.08,1011.99,2036.42,3176.00,3156.41,3430.16,350.34,317.29,7.70,0000 0000 0000 0000 000000
2013-08-05 01:06:40,0.03,0.58,0.00,28.12,31.10,33.37,5.81,31.08,1011.94,2036.48,3176.00,3156.33,3430.06,349.86,317.02,7.71,0000 0000 0000 0000 000000
2013-08-05 01:07:40,0.12,0.58,0.00,28.06,31.10,33.38,5.79,30.92,1011.90,2036.60,3176.00,3156.45,3430.09,349.05,316.40,7.71,0000 0000 0000 0000 000000
2013-08-05 01:08:40,0.04,0.58,0.00,28.03,31.10,33.38,5.82,30.58,1011.85,2036.71,3176.00,3156.61,3430.20,349.31,316.44,7.72,0000 0000 0000 0000 000000
2013-08-05 01:09:40,0.04,0.58,0.00,28.08,31.10,33.39,5.91,30.88,1011.85,2036.73,3176.00,3156.59,3430.13,350.06,316.79,7.72,0000 0000 0000 0000 000000
2013-08-05 01:10:40,0.01,0.58,0.00,28.07,31.10,33.37,5.96,31.04,1011.81,2036.77,3176.00,3156.53,3430.12,350.23,317.44,7.73,0000 0000 0000 0000 000000
2013-08-05 01:11:41,0.03,0.58,0.00,28.10,31.10,33.34,5.98,30.96,1011.83,2036.76,3176.00,3156.55,3430.21,350.39,316.91,7.74,0000 0000 0000 0000 000000
2013-08-05 01:12:41,-0.00,0.58,0.00,28.10,31.09,33.32,5.84,31.08,1011.83,2036.80,3176.00,3156.54,3430.20,350.17,316.69,7.74,0000 0000 0000 0000 000000
2013-08-05 01:13:41,0.02,0.58,0.00,28.11,31.09,33.32,5.79,31.08,1011.82,2036.81,3176.00,3156.58,3430.18,350.02,316.67,7.75,0000 0000 0000 0000 000000
2013-08-05 01:14:42,0.02,0.58,0.00,28.12,31.08,33.34,5.87,31.13,1011.78,2036.77,3176.00,3156.53,3430.13,351.29,318.12,7.75,0000 0000 0000 0000 000000
2013-08-05 01:15:42,-0.01,0.58,0.00,28.06,31.08,33.38,5.87,31.04,1011.77,2036.71,3176.00,3156.53,3430.07,350.22,316.77,7.76,0000 0000 0000 0000 000000
2013-08-05 01:16:42,-0.03,0.58,0.00,28.05,31.07,33.37,5.83,31.21,1011.80,2036.77,3176.00,3156.51,3430.07,350.03,317.00,7.77,0000 0000 0000 0000 000000
2013-08-05 01:17:42,0.05,0.59,0.00,28.05,31.07,33.38,5.92,31.08,1011.80,2036.81,3176.00,3156.38,3430.05,350.71,317.76,7.77,0000 0000 0000 0000 000000
2013-08-05 01:18:43,0.07,0.59,0.00,28.06,31.07,33.34,5.93,31.08,1011.84,2036.77,3176.00,3156.21,3430.03,350.23,317.24,7.78,0000 0000 0000 0000 000000
2013-08-05 01:19:43,-0.01,0.59,0.00,28.08,31.07,33.35,5.98,31.04,1011.89,2036.80,3176.00,3156.27,3430.05,350.88,317.82,7.78,0000 0000 0000 0000 000000
2013-08-05 01:20:43,-0.01,0.59,0.00,28.06,31.07,33.35,5.73,30.96,1011.89,2036.84,3176.00,3156.33,3430.05,349.73,316.80,7.79,0000 0000 0000 0000 000000
2013-08-05 01:21:44,0.01,0.59,0.00,28.09,31.07,33.35,5.66,30.92,1011.96,2036.85,3175.99,3156.42,3430.08,348.99,316.39,7.80,0000 0000 0000 0000 000000
2013-08-05 01:22:44,0.02,0.59,0.00,28.08,31.07,33.33,5.73,31.17,1011.95,2036.92,3175.98,3156.51,3430.05,348.85,316.00,7.80,0000 0000 0000 0000 000000
2013-08-05 01:23:44,0.02,0.59,0.00,28.09,31.07,33.35,5.92,31.08,1011.87,2036.91,3175.99,3156.45,3430.05,350.46,317.42,7.81,0000 0000 0000 0000 000000
2013-08-05 01:24:44,0.01,0.59,0.00,28.07,31.07,33.35,5.79,31.08,1011.90,2036.85,3175.99,3156.36,3430.05,349.55,316.62,7.81,0000 0000 0000 0000 000000
2013-08-05 01:25:45,-0.04,0.59,0.00,28.05,31.07,33.32,5.73,30.96,1011.98,2036.87,3175.99,3156.41,3430.05,348.67,316.03,7.82,0000 0000 0000 0000 000000
2013-08-05 01:26:45,0.00,0.59,0.00,28.04,31.06,33.36,5.98,31.17,1012.03,2036.89,3175.99,3156.51,3430.05,350.19,317.27,7.82,0000 0000 0000 0000 000000
2013-08-05 01:27:45,-0.02,0.59,0.00,28.08,31.05,33.34,5.78,31.17,1012.12,2036.87,3175.99,3156.45,3430.05,349.84,316.73,7.83,0000 0000 0000 0000 000000
2013-08-05 01:28:45,-0.00,0.59,0.00,28.07,31.05,33.32,5.91,31.08,1012.11,2036.87,3175.98,3156.33,3430.03,349.75,316.87,7.84,0000 0000 0000 0000 000000
2013-08-05 01:29:45,0.03,0.59,0.00,28.01,31.05,33.32,5.75,31.21,1012.10,2036.89,3175.99,3156.46,3430.03,349.39,316.60,7.84,0000 0000 0000 0000 000000
2013-08-05 01:30:45,-0.01,0.59,0.00,27.99,31.05,33.28,5.81,31.04,1012.08,2036.88,3175.99,3156.58,3430.06,349.76,316.96,7.85,0000 0000 0000 0000 000000
2013-08-05 01:31:46,-0.03,0.59,0.00,28.09,31.05,33.33,5.83,31.17,1012.04,2036.91,3175.99,3156.73,3430.13,350.16,317.21,7.85,0000 0000 0000 0000 000000
2013-08-05 01:32:46,-0.01,0.59,0.00,28.11,31.05,33.31,5.81,30.92,1012.01,2036.94,3175.99,3156.72,3430.10,350.09,317.11,7.86,0000 0000 0000 0000 000000
2013-08-05 01:33:46,0.02,0.59,0.00,28.11,31.05,33.30,5.93,31.04,1012.06,2036.93,3175.99,3156.70,3430.07,350.60,317.59,7.87,0000 0000 0000 0000 000000
2013-08-05 01:34:46,-0.01,0.59,0.00,28.12,31.05,33.29,5.80,31.17,1012.08,2036.94,3175.99,3156.75,3430.12,349.83,316.88,7.87,0000 0000 0000 0000 000000
2013-08-05 01:35:46,-0.00,0.59,0.00,28.11,31.05,33.26,5.88,31.08,1012.05,2036.96,3175.99,3156.84,3430.19,350.66,317.54,7.88,0000 0000 0000 0000 000000
2013-08-05 01:36:46,-0.02,0.59,0.00,28.10,31.05,33.32,5.61,30.96,1012.08,2036.97,3175.99,3156.90,3430.20,349.06,316.34,7.88,0000 0000 0000 0000 000000
2013-08-05 01:37:47,-0.00,0.59,0.00,28.10,31.05,33.34,5.89,30.92,1012.09,2036.98,3175.99,3156.89,3430.22,350.04,317.69,7.89,0000 0000 0000 0000 000000
2013-08-05 01:38:47,0.00,0.59,0.00,28.08,31.04,33.32,5.66,30.88,1012.18,2036.99,3175.99,3156.92,3430.25,349.47,316.88,7.89,0000 0000 0000 0000 000000
2013-08-05 01:39:47,-0.01,0.59,0.00,28.07,31.04,33.32,5.70,31.04,1012.18,2036.99,3175.99,3156.93,3430.27,349.73,316.68,7.90,0000 0000 0000 0000 000000
2013-08-05 01:40:47,-0.00,0.59,0.00,28.04,31.03,33.31,5.84,31.08,1012.20,2036.98,3175.97,3156.86,3430.22,350.32,316.93,7.91,0000 0000 0000 0000 000000
2013-08-05 01:41:48,0.02,0.59,0.00,27.97,31.02,33.31,5.77,31.08,1012.19,2036.98,3175.98,3156.78,3430.13,349.81,317.46,7.91,0000 0000 0000 0000 000000
2013-08-05 01:42:48,0.02,0.59,0.00,28.03,31.02,33.31,5.73,31.50,1012.18,2036.98,3175.97,3156.65,3430.07,350.51,317.62,7.92,0000 0000 0000 0000 000000
2013-08-05 01:43:48,0.04,0.59,0.00,28.02,31.02,33.31,5.99,31.29,1012.17,2036.95,3175.97,3156.65,3430.05,351.06,318.13,7.92,0000 0000 0000 0000 000000
2013-08-05 01:44:48,-0.04,0.59,0.00,28.00,31.02,33.31,5.93,31.21,1012.18,2036.95,3175.94,3156.68,3430.07,349.97,317.16,7.93,0000 0000 0000 0000 000000
2013-08-05 01:45:49,0.03,0.59,0.00,28.02,31.02,33.29,5.96,31.13,1012.15,2036.96,3175.94,3156.59,3430.11,350.69,317.79,7.94,0000 0000 0000 0000 000000
2013-08-05 01:46:49,0.00,0.59,0.00,28.07,31.02,33.29,5.89,31.08,1012.13,2036.98,3175.91,3156.53,3430.05,349.96,317.39,7.94,0000 0000 0000 0000 000000
2013-08-05 01:47:49,0.06,0.59,0.00,28.06,31.02,33.28,5.89,30.92,1012.16,2036.98,3175.92,3156.57,3430.01,349.89,317.02,7.95,0000 0000 0000 0000 000000
2013-08-05 01:48:49,-0.03,0.59,0.00,28.08,31.02,33.32,5.86,30.92,1012.19,2036.97,3175.91,3156.64,3430.04,350.19,317.50,7.95,0000 0000 0000 0000 000000
2013-08-05 01:49:50,-0.04,0.59,0.00,28.10,31.02,33.28,5.73,30.88,1012.16,2036.98,3175.59,3156.34,3430.02,349.48,317.13,7.96,0000 0000 0000 0000 000000
2013-08-05 01:50:50,0.17,0.59,0.00,28.10,31.02,33.27,5.82,30.96,1012.19,2036.98,3175.40,3156.14,3430.00,349.63,316.76,7.96,0000 0000 0000 0000 000000
2013-08-05 01:51:50,0.06,0.59,0.00,28.11,31.02,33.29,5.86,31.13,1012.15,2036.99,3175.32,3156.07,3430.00,350.42,317.46,7.97,0000 0000 0000 0000 000000
2013-08-05 01:52:50,0.03,0.59,0.00,28.12,31.02,33.31,6.07,31.29,1012.17,2036.99,3175.28,3156.06,3430.00,351.03,318.10,7.98,0000 0000 0000 0000 000000
2013-08-05 01:53:50,0.00,0.59,0.00,28.09,31.01,33.28,5.98,30.96,1012.18,2036.98,3175.18,3156.03,3430.00,350.89,317.59,7.98,0000 0000 0000 0000 000000
2013-08-05 01:54:51,0.01,0.59,0.00,28.07,31.00,33.35,5.92,31.04,1012.18,2036.99,3175.15,3156.04,3430.00,350.21,317.30,7.99,0000 0000 0000 0000 000000
2013-08-05 01:55:51,0.00,0.59,0.00,28.07,31.00,33.32,5.92,30.96,1012.21,2036.99,3175.23,3156.05,3430.00,350.88,317.72,7.99,0000 0000 0000 0000 000000
2013-08-05 01:56:51,0.00,0.59,0.00,28.07,31.00,33.32,5.85,31.08,1012.19,2036.99,3175.20,3156.03,3429.99,349.76,316.91,8.00,0000 0000 0000 0000 000000
2013-08-05 01:57:51,0.01,0.59,0.00,27.99,31.00,33.34,5.92,31.13,1012.19,2036.98,3175.18,3156.01,3429.99,350.40,317.34,8.01,0000 0000 0000 0000 000000
2013-08-05 01:58:51,0.00,0.59,0.00,28.03,31.00,33.34,5.88,31.17,1012.17,2036.99,3175.23,3156.03,3429.99,349.34,317.19,8.01,0000 0000 0000 0000 000000
2013-08-05 01:59:51,0.00,0.59,0.00,28.08,31.00,33.32,5.90,31.13,1012.20,2036.99,3175.17,3156.05,3429.99,350.29,317.14,8.02,0000 0000 0000 0000 000000
2013-08-05 02:00:51,0.00,0.59,0.00,28.05,31.00,33.29,6.05,31.08,1012.21,2036.99,3175.10,3156.05,3429.99,351.21,318.38,8.02,0000 0000 0000 0000 000000
2013-08-05 02:01:52,0.01,0.59,0.00,28.06,31.00,33.29,5.89,30.92,1012.21,2036.99,3175.06,3156.03,3429.99,350.28,317.41,8.03,0000 0000 0000 0000 000000
2013-08-05 02:02:52,0.01,0.59,0.00,28.04,31.00,33.29,5.89,31.04,1012.22,2036.99,3175.05,3156.03,3429.99,350.39,317.31,8.03,0000 0000 0000 0000 000000
2013-08-05 02:03:52,0.00,0.59,0.00,28.03,31.00,33.28,5.77,30.92,1012.22,2036.99,3175.05,3156.06,3429.98,349.69,317.14,8.04,0000 0000 0000 0000 000000
2013-08-05 02:04:52,-0.01,0.59,0.00,28.07,31.00,33.26,5.81,31.08,1012.21,2036.99,3175.04,3156.05,3429.99,350.11,316.55,8.05,0000 0000 0000 0000 000000
2013-08-05 02:05:52,0.00,0.59,0.00,28.08,31.00,33.25,5.90,31.00,1012.22,2036.99,3175.04,3156.03,3429.99,349.78,316.92,8.05,0000 0000 0000 0000 000000
2013-08-05 02:06:52,0.00,0.59,0.00,28.09,31.00,33.26,5.83,31.00,1012.22,2036.99,3175.02,3156.01,3429.98,350.14,317.40,8.06,0000 0000 0000 0000 000000
2013-08-05 02:07:53,0.00,0.59,0.00,28.08,31.00,33.26,5.96,31.04,1012.22,2036.99,3175.01,3156.02,3429.98,351.09,318.12,8.06,0000 0000 0000 0000 000000
2013-08-05 02:08:53,0.00,0.59,0.00,28.05,31.00,33.27,5.83,31.13,1012.20,2036.99,3175.03,3156.04,3429.99,350.19,316.70,8.07,0000 0000 0000 0000 000000
2013-08-05 02:09:53,-0.01,0.59,0.00,28.07,30.99,33.27,5.81,31.13,1012.19,2036.99,3175.03,3156.06,3429.99,349.80,316.94,8.08,0000 0000 0000 0000 000000
2013-08-05 02:10:53,0.00,0.59,0.00,28.07,30.99,33.27,5.74,30.96,1012.20,2036.99,3175.03,3156.06,3429.99,349.63,316.80,8.08,0000 0000 0000 0000 000000
2013-08-05 02:11:53,0.00,0.59,0.00,28.07,30.98,33.28,5.78,31.13,1012.22,2036.99,3175.01,3156.03,3429.97,350.47,317.56,8.09,0000 0000 0000 0000 000000
2013-08-05 02:12:54,0.01,0.59,0.00,28.10,30.98,33.31,5.84,31.17,1012.22,2036.99,3175.00,3156.01,3429.95,349.38,316.55,8.09,0000 0000 0000 0000 000000
2013-08-05 02:13:54,0.00,0.59,0.00,28.12,30.97,33.26,5.86,31.08,1012.22,2036.99,3175.00,3156.00,3429.95,349.01,316.19,8.10,0000 0000 0000 0000 000000
2013-08-05 02:14:54,0.00,0.59,0.00,28.13,30.97,33.26,5.91,31.00,1012.21,2036.99,3174.96,3155.97,3429.80,350.57,317.59,8.11,0000 0000 0000 0000 000000
2013-08-05 02:15:54,0.02,0.59,0.00,28.11,30.97,33.26,5.95,31.00,1012.21,2036.99,3174.79,3155.78,3429.32,350.38,317.11,8.11,0000 0000 0000 0000 000000
2013-08-05 02:16:55,0.13,0.59,0.00,28.10,30.97,33.26,5.82,31.17,1012.21,2036.99,3174.58,3155.64,3429.11,350.34,317.40,8.12,0000 0000 0000 0000 000000
2013-08-05 02:17:55,0.11,0.59,0.00,28.10,30.97,33.26,5.73,30.83,1012.22,2036.99,3174.37,3155.45,3429.04,349.67,316.81,8.12,0000 0000 0000 0000 000000
2013-08-05 02:18:55,0.06,0.59,0.00,28.11,30.97,33.30,5.92,31.08,1012.22,2036.99,3174.20,3155.28,3429.01,349.65,317.22,8.13,0000 0000 0000 0000 000000
2013-08-05 02:19:55,0.06,0.59,0.00,28.07,30.97,33.28,5.65,31.04,1012.22,2036.99,3174.14,3155.25,3429.00,349.32,316.50,8.13,0000 0000 0000 0000 000000
2013-08-05 02:20:56,0.00,0.59,0.00,28.04,30.97,33.28,5.96,30.96,1012.22,2036.99,3174.18,3155.44,3429.00,349.80,316.99,8.14,0000 0000 0000 0000 000000
2013-08-05 02:21:56,-0.05,0.59,0.00,28.07,30.97,33.29,5.73,31.04,1012.22,2036.99,3174.24,3155.68,3429.00,349.79,316.95,8.15,0000 0000 0000 0000 000000
2013-08-05 02:22:56,-0.05,0.59,0.00,27.99,30.97,33.28,5.90,30.88,1012.22,2036.99,3174.23,3155.68,3429.00,349.69,317.26,8.15,0000 0000 0000 0000 000000
2013-08-05 02:23:56,0.00,0.59,0.00,27.91,30.97,33.28,5.82,31.17,1012.22,2036.99,3174.22,3155.72,3429.00,349.77,317.09,8.16,0000 0000 0000 0000 000000
2013-08-05 02:24:56,0.00,0.59,0.00,27.86,30.97,33.26,5.78,31.13,1012.22,2036.99,3174.27,3155.81,3429.00,349.68,316.96,8.16,0000 0000 0000 0000 000000
2013-08-05 02:25:56,-0.03,0.59,0.00,27.83,30.97,33.25,6.07,31.08,1012.22,2037.00,3174.28,3155.85,3429.00,350.70,318.14,8.17,0000 0000 0000 0000 000000
2013-08-05 02:26:57,0.00,0.59,0.00,27.92,30.96,33.26,5.82,31.17,1012.22,2037.00,3174.24,3155.87,3429.00,350.25,317.88,8.18,0000 0000 0000 0000 000000
2013-08-05 02:27:57,0.00,0.59,0.00,27.95,30.96,33.27,5.84,31.21,1012.22,2037.00,3174.16,3155.79,3429.00,349.87,317.14,8.18,0000 0000 0000 0000 000000
2013-08-05 02:28:57,0.03,0.59,0.00,27.94,30.95,33.25,5.94,31.00,1012.22,2037.00,3174.11,3155.81,3429.00,350.38,317.43,8.19,0000 0000 0000 0000 000000
2013-08-05 02:29:57,0.00,0.59,0.00,27.99,30.95,33.26,5.87,30.96,1012.22,2037.00,3174.11,3155.78,3429.00,350.16,317.32,8.19,0000 0000 0000 0000 000000
2013-08-05 02:30:57,0.00,0.59,0.00,27.91,30.95,33.25,5.80,30.75,1012.22,2037.00,3174.06,3155.75,3429.00,349.92,317.69,8.20,0000 0000 0000 0000 000000
2013-08-05 02:31:58,0.02,0.59,0.00,27.87,30.95,33.24,5.97,31.17,1012.22,2037.01,3174.04,3155.79,3429.00,350.23,317.66,8.20,0000 0000 0000 0000 000000
2013-08-05 02:32:58,0.00,0.59,0.00,27.94,30.95,33.23,5.83,31.38,1012.22,2037.00,3174.03,3155.66,3428.99,350.30,317.62,8.21,0000 0000 0000 0000 000000
2013-08-05 02:33:58,0.03,0.59,0.00,27.97,30.95,33.23,5.79,31.21,1012.22,2037.00,3174.02,3155.63,3428.98,349.76,317.02,8.22,0000 0000 0000 0000 000000
2013-08-05 02:34:58,0.01,0.59,0.00,27.87,30.95,33.25,5.86,31.21,1012.22,2037.00,3174.01,3155.51,3428.98,350.25,317.57,8.22,0000 0000 0000 0000 000000
2013-08-05 02:35:58,0.02,0.59,0.00,27.95,30.95,33.24,5.77,31.13,1012.22,2037.00,3174.01,3155.53,3428.98,349.78,317.06,8.23,0000 0000 0000 0000 000000
2013-08-05 02:36:59,-0.01,0.59,0.00,28.03,30.95,33.23,5.73,31.17,1012.22,2037.00,3174.01,3155.44,3428.98,349.12,316.38,8.23,0000 0000 0000 0000 000000